Location: Prairie View Elementary School
(39.8322°N, 99.5698°W)
Time: 22:57:58
(UTC+00:00)

Cosmos 2251 Rocket - Pass Details

Date: 08 December 2019
Orbit: 765 x 791 km, 74.0° (Epoch: 22 January)

Event Time Altitude Azimuth Distance (km) Brightness Sun altitude
Rises 00:03:52 0° 191° (SSW) 3,258 7.3 -9.6°
Reaches altitude 10° 00:06:15 10° 190° (S) 2,330 6.4 -10.0°
Maximum altitude 00:11:31 73° 107° (ESE) 817 3.5 -11.0°
Drops below altitude 10° 00:16:48 10° 23° (NNE) 2,328 5.6 -11.9°
Enters shadow 00:18:10 - 22° (NNE) 2,858 6.1 -12.2°
